Wind_Speed
27 27 26 27 27 28 28 28 27 26 26 26 26 25 25 25 24 24 24 24 24 25 26 25 26 27 27 27 27 28 29 30 30 32 32 33 34 35 36 37 38 37 36 36
28 28 28 28 28 28 28 28 27 26 27 27 26 25 25 24 23 23 23 22 23 24 25 25 25 26 26 26 27 28 28 30 30 30 32 33 35 35 35 36 38 37 37 36
29 28 28 28 28 28 28 28 28 27 27 27 27 25 24 23 23 23 23 23 23 23 24 24 24 25 25 26 26 27 28 29 30 30 31 32 33 34 34 35 36 36 36 36
30 29 29 29 29 29 28 28 29 28 28 27 27 27 23 23 23 23 23 24 24 24 24 24 25 25 25 26 26 27 28 30 30 31 31 32 32 33 33 33 35 36 36 36
31 30 30 30 29 30 29 29 29 29 29 28 27 28 24 23 23 23 24 24 25 25 25 25 26 26 26 26 27 27 28 30 30 30 31 31 31 31 32 32 33 34 36 37
31 31 30 30 30 30 30 30 30 30 29 29 27 27 26 23 23 23 24 25 25 26 25 25 26 27 27 27 27 27 27 29 30 30 30 31 31 31 31 32 34 34 35 36
33 32 32 32 32 32 31 31 31 31 30 29 28 28 26 24 24 24 24 24 25 26 26 26 27 28 28 28 28 27 27 28 28 29 29 31 31 32 32 33 33 33 34 36
36 34 34 33 33 33 32 32 31 32 32 30 29 28 25 24 24 24 23 24 25 26 27 28 28 28 29 28 29 29 28 28 28 28 29 30 31 32 33 33 33 34 35 36
37 37 35 34 33 33 33 32 32 32 33 32 30 28 26 24 24 24 24 24 26 26 27 28 28 28 29 30 30 29 29 28 28 28 29 30 31 33 33 33 34 35 36 36
39 40 37 36 35 34 34 33 32 33 33 33 32 28 27 25 24 25 25 25 26 27 27 28 28 28 28 29 29 29 29 29 29 30 30 31 31 33 34 35 36 36 37 37
40 41 40 38 36 35 34 33 33 34 34 34 34 29 27 26 26 26 26 26 27 27 27 27 28 28 28 28 28 28 29 29 29 30 31 31 32 33 35 36 36 37 37 38
40 41 41 39 37 36 36 35 34 35 35 35 35 31 28 29 28 28 27 28 28 28 28 28 28 29 28 28 28 28 28 29 30 31 31 32 32 33 34 35 36 36 37 38
40 41 41 39 38 37 36 36 35 36 36 36 35 32 30 30 30 29 29 28 28 29 29 29 29 29 29 29 29 29 28 29 30 31 32 32 33 34 34 34 35 36 37 38
41 41 40 38 37 36 36 35 35 36 37 37 35 33 31 32 31 31 30 29 29 29 30 30 29 29 29 29 29 29 30 30 30 30 31 32 33 34 35 35 36 36 37 38
41 41 40 38 37 37 36 35 34 36 37 38 36 35 33 33 34 33 33 31 31 31 31 31 30 30 30 30 30 30 30 31 32 31 31 32 32 32 34 35 35 35 36 37
40 40 40 40 39 38 37 36 35 36 36 37 37 36 35 35 34 34 33 32 32 32 32 32 31 31 31 31 31 31 31 32 32 32 33 33 33 33 34 34 35 35 36 37
39 39 39 39 39 40 39 37 36 36 35 35 36 35 36 36 35 34 34 34 33 32 32 32 32 32 31 32 32 32 32 33 33 34 34 33 34 34 34 35 36 36 37 37
37 37 38 38 38 39 37 36 36 36 36 36 35 35 36 36 35 35 35 35 34 34 33 33 33 33 33 32 33 33 33 34 34 34 34 34 34 34 34 34 35 36 37 37
35 36 37 37 37 37 35 35 35 35 36 36 36 36 36 36 36 35 35 35 35 35 35 35 35 35 34 33 33 34 33 33 33 34 34 34 34 34 33 34 34 35 36 37
34 33 34 35 36 36 34 34 34 36 37 37 37 37 37 37 37 36 36 36 36 36 36 36 37 36 36 35 34 35 35 34 34 34 34 34 35 34 34 34 36 36 37 38
32 32 32 32 34 34 34 34 35 36 37 37 37 37 37 37 38 37 38 38 38 37 37 37 37 37 37 37 36 35 35 35 35 35 35 35 36 36 36 36 37 38 38 39
31 32 32 32 33 33 33 34 35 36 37 37 37 38 38 38 38 38 39 39 39 39 38 38 38 37 37 37 37 37 36 36 36 36 36 36 36 37 37 37 38 39 39 40
31 31 32 33 33 33 34 34 35 37 37 36 37 37 38 39 39 40 40 40 40 40 39 39 38 38 38 37 37 37 36 36 36 36 36 37 37 37 38 38 39 40 40 41
31 31 32 32 33 34 34 35 35 36 37 37 37 37 37 38 39 39 39 40 40 40 40 39 39 38 38 37 37 36 36 36 36 36 37 37 38 38 39 40 41 42 42 42
30 31 32 33 33 34 34 35 35 35 36 36 37 37 37 37 37 37 36 37 37 38 38 38 38 38 38 37 37 36 36 36 36 37 38 38 38 39 40 40 41 41 42 43
30 31 32 32 33 33 33 34 34 34 34 35 35 35 35 35 35 35 35 35 36 36 36 36 37 37 37 36 36 36 36 36 37 37 37 38 38 39 39 39 39 40 41 40
Wind_Direction
285 287 290 293 293 294 296 297 296 294 293 292 291 290 290 287 281 277 274 271 269 269 265 264 260 258 259 260 259 255 252 251 250 248 246 246 247 247 246 246 247 246 246 247
284 286 288 290 291 292 294 295 295 294 293 292 292 289 289 288 282 277 275 272 272 272 271 269 265 263 260 260 259 256 255 254 253 250 248 248 248 248 248 248 248 247 246 247
284 286 286 288 290 291 293 294 294 292 292 292 291 289 289 287 282 278 276 275 273 272 271 271 268 265 262 260 260 258 257 256 255 253 251 250 249 249 249 249 247 245 245 246
284 285 286 287 288 290 290 291 291 290 290 291 292 291 288 286 281 278 276 275 274 272 274 273 270 268 264 262 262 259 259 259 259 258 255 252 251 250 249 249 248 247 248 248
284 285 285 286 287 288 288 289 288 288 288 289 291 291 288 285 280 277 276 277 273 271 274 276 273 270 269 264 261 261 261 261 260 258 255 253 251 249 250 251 251 251 250 247
282 283 284 285 285 286 286 286 286 286 286 287 291 290 289 287 284 280 278 277 274 272 274 273 273 271 270 268 264 263 264 262 260 258 255 253 252 250 251 252 253 253 252 249
279 280 282 283 284 284 284 285 285 285 286 287 289 288 289 289 286 283 281 279 275 273 273 273 273 273 272 269 266 265 265 263 261 259 257 255 253 251 252 253 252 252 253 252
279 279 280 281 282 283 281 281 282 284 285 286 286 287 288 288 288 286 283 280 277 276 275 275 276 274 273 270 267 265 265 264 261 259 257 256 253 251 252 252 252 253 254 253
277 277 278 278 279 279 279 279 279 280 281 282 283 284 285 287 286 286 284 281 280 278 277 278 279 275 272 270 269 266 265 263 260 258 258 258 255 252 254 254 253 254 255 254
274 275 275 274 274 274 276 277 277 277 279 281 281 281 282 283 283 282 282 281 280 281 281 282 281 280 274 270 269 266 264 262 261 259 258 258 257 255 256 257 256 255 255 255
274 274 274 272 271 273 273 273 273 274 274 277 280 281 282 282 281 281 280 279 281 280 280 280 281 280 278 273 269 265 265 262 262 261 259 259 259 258 258 258 258 257 256 255
274 274 273 272 271 271 271 271 271 271 273 274 276 278 279 279 279 279 279 278 278 280 280 280 279 278 278 276 270 267 266 263 262 261 260 260 259 259 259 259 258 258 258 258
272 272 273 272 271 270 270 270 270 269 270 271 273 276 277 276 276 276 276 276 277 278 278 279 278 277 277 276 273 270 268 266 264 262 261 261 261 260 260 259 259 259 258 258
270 270 271 271 271 270 269 269 268 267 268 269 271 273 273 274 274 274 275 275 275 276 276 277 278 277 276 276 275 275 273 269 267 265 264 264 263 262 262 261 261 260 258 259
269 269 269 268 267 267 266 266 266 266 267 268 270 271 272 273 273 273 274 274 275 276 276 275 277 276 274 274 275 275 275 272 270 268 267 268 267 265 263 261 261 260 260 259
268 269 267 266 265 265 265 266 267 266 266 267 268 269 270 271 271 272 272 273 274 275 276 276 275 275 274 275 275 274 275 272 271 270 269 269 269 267 265 263 262 261 261 260
267 267 266 265 264 265 265 265 267 267 266 267 267 268 268 268 267 269 270 271 272 273 274 275 275 275 275 274 275 275 274 272 270 269 269 269 269 268 267 265 264 263 262 261
267 266 267 267 265 265 266 266 267 268 267 267 267 267 268 268 267 268 269 270 272 273 273 274 274 275 276 275 274 276 275 273 271 270 268 268 268 268 267 267 266 266 264 264
267 267 267 267 266 265 264 265 267 268 267 268 269 269 270 269 268 267 269 270 271 272 274 274 274 275 275 275 275 275 275 274 272 270 269 268 268 269 269 267 267 267 267 267
266 266 267 268 267 267 266 265 267 268 267 268 270 271 272 271 269 267 268 269 270 271 272 273 274 275 275 275 275 274 274 273 272 271 270 269 270 270 270 269 269 270 269 269
266 265 267 267 267 268 269 269 268 269 270 270 271 272 272 271 270 268 268 269 270 270 271 273 273 274 275 275 275 274 273 273 271 271 270 271 271 271 271 270 271 272 272 271
266 266 266 267 267 268 270 270 270 272 272 272 272 272 272 271 271 270 270 271 271 272 272 272 273 274 274 274 275 275 274 273 272 271 271 272 272 272 273 272 273 273 273 273
265 266 266 266 268 269 269 272 273 272 272 273 273 273 273 272 272 272 272 272 273 273 273 273 273 274 274 274 275 274 274 273 272 271 272 272 273 273 273 274 274 275 274 273
264 265 265 266 267 269 269 271 272 273 272 272 272 273 274 273 272 272 272 272 272 273 273 273 273 273 273 274 274 274 274 274 274 274 273 273 273 274 275 275 276 276 276 275
265 265 267 268 269 269 269 271 271 272 272 271 272 273 273 273 273 272 272 272 273 273 274 273 273 272 273 273 273 274 274 274 274 274 275 275 275 276 277 278 278 278 277 277
266 267 267 268 269 269 269 270 271 271 272 272 273 274 274 274 274 274 273 274 274 274 275 274 274 274 273 273 273 274 274 275 275 275 275 276 276 277 278 279 279 279 278 277
Height
5737 5737 5734 5732 5730 5727 5724 5722 5720 5718 5715 5713 5711 5710 5708 5705 5704 5703 5702 5702 5702 5702 5703 5703 5704 5705 5705 5706 5707 5708 5709 5711 5712 5714 5716 5718 5720 5722 5724 5727 5730 5732 5735 5737
5732 5730 5728 5725 5723 5721 5718 5716 5714 5712 5709 5707 5705 5704 5703 5701 5699 5698 5698 5697 5697 5697 5697 5697 5698 5699 5699 5700 5700 5702 5702 5703 5705 5707 5708 5710 5712 5714 5716 5718 5720 5723 5726 5729
5725 5724 5721 5719 5717 5715 5713 5710 5708 5706 5704 5701 5699 5699 5698 5696 5694 5693 5693 5692 5692 5692 5692 5692 5693 5693 5693 5694 5694 5695 5696 5697 5698 5699 5700 5701 5703 5705 5707 5709 5711 5714 5717 5720
5717 5716 5714 5713 5711 5708 5707 5704 5701 5699 5697 5696 5694 5692 5694 5691 5690 5689 5688 5688 5687 5687 5687 5687 5687 5688 5688 5688 5688 5689 5689 5690 5691 5691 5692 5694 5695 5697 5699 5700 5703 5705 5708 5711
5710 5709 5707 5706 5704 5702 5700 5698 5695 5693 5691 5690 5689 5686 5688 5686 5685 5685 5684 5683 5683 5682 5682 5682 5681 5682 5682 5682 5682 5682 5682 5683 5684 5684 5685 5686 5688 5689 5691 5693 5695 5698 5700 5703
5702 5701 5699 5698 5697 5695 5693 5691 5689 5687 5685 5684 5684 5681 5681 5681 5680 5680 5679 5678 5677 5677 5676 5676 5675 5675 5675 5675 5675 5675 5675 5676 5676 5677 5678 5679 5681 5682 5684 5685 5687 5689 5691 5694
5694 5694 5692 5691 5689 5688 5686 5685 5682 5680 5678 5679 5678 5675 5676 5675 5674 5674 5673 5672 5671 5671 5671 5670 5669 5669 5668 5668 5668 5668 5668 5669 5669 5670 5671 5672 5673 5674 5676 5678 5679 5681 5683 5685
5684 5686 5685 5683 5681 5680 5679 5678 5676 5674 5672 5672 5671 5670 5671 5670 5668 5668 5667 5666 5666 5665 5664 5663 5662 5661 5661 5661 5661 5661 5661 5661 5662 5663 5663 5664 5665 5667 5668 5670 5671 5673 5674 5676
5674 5675 5676 5674 5673 5672 5670 5670 5669 5667 5665 5664 5664 5664 5665 5664 5663 5662 5661 5660 5659 5659 5658 5656 5655 5654 5654 5654 5653 5653 5653 5654 5654 5655 5656 5657 5657 5659 5660 5661 5662 5664 5665 5667
5663 5663 5665 5665 5664 5663 5663 5662 5661 5659 5657 5656 5657 5658 5658 5657 5657 5656 5655 5654 5653 5652 5651 5649 5648 5647 5646 5646 5646 5645 5646 5646 5646 5647 5648 5649 5650 5651 5651 5652 5653 5655 5656 5658
5652 5652 5653 5654 5654 5654 5654 5654 5652 5651 5650 5649 5648 5653 5652 5650 5649 5649 5648 5647 5646 5645 5644 5643 5642 5640 5639 5638 5638 5638 5638 5638 5638 5639 5640 5641 5641 5642 5643 5643 5644 5645 5646 5648
5641 5640 5641 5643 5644 5643 5643 5643 5643 5643 5642 5641 5641 5646 5644 5643 5642 5641 5641 5640 5639 5638 5637 5636 5634 5633 5632 5631 5631 5631 5631 5631 5631 5632 5632 5632 5633 5633 5634 5634 5635 5636 5638 5639
5630 5630 5630 5631 5634 5633 5633 5633 5633 5633 5633 5632 5632 5638 5636 5635 5634 5633 5633 5632 5631 5630 5629 5628 5627 5626 5624 5624 5624 5624 5623 5623 5623 5623 5623 5624 5624 5625 5625 5626 5627 5627 5628 5629
5618 5619 5620 5621 5622 5622 5622 5623 5623 5623 5622 5623 5625 5627 5628 5626 5625 5625 5624 5624 5623 5622 5621 5620 5619 5618 5617 5616 5616 5616 5615 5615 5615 5614 5615 5615 5615 5616 5616 5617 5617 5618 5619 5620
5606 5607 5608 5609 5610 5610 5611 5612 5613 5613 5613 5614 5616 5616 5618 5617 5616 5616 5616 5615 5615 5614 5613 5612 5611 5610 5609 5609 5608 5608 5607 5606 5606 5606 5606 5606 5607 5607 5607 5607 5608 5608 5609 5610
5595 5596 5597 5599 5600 5599 5600 5602 5603 5603 5604 5604 5605 5607 5607 5607 5607 5607 5607 5607 5606 5605 5604 5604 5603 5602 5601 5600 5600 5599 5599 5598 5598 5598 5597 5597 5597 5597 5598 5598 5598 5599 5600 5600
5585 5586 5586 5588 5589 5588 5590 5593 5593 5594 5594 5595 5595 5597 5596 5597 5597 5597 5597 5597 5597 5597 5596 5595 5594 5593 5592 5591 5591 5590 5590 5589 5589 5589 5589 5588 5588 5588 5588 5588 5589 5589 5590 5590
5575 5575 5575 5576 5578 5578 5583 5583 5583 5583 5584 5584 5584 5585 5585 5586 5586 5587 5587 5587 5587 5587 5587 5586 5585 5584 5584 5582 5582 5581 5581 5580 5580 5579 5579 5579 5579 5579 5579 5579 5579 5579 5580 5580
5566 5565 5565 5566 5566 5568 5571 5572 5573 5573 5574 5574 5574 5575 5575 5575 5576 5577 5577 5577 5577 5577 5577 5577 5576 5575 5574 5573 5573 5572 5571 5571 5570 5570 5570 5570 5569 5570 5569 5570 5570 5570 5570 5570
5556 5556 5557 5556 5556 5558 5562 5563 5562 5563 5563 5564 5564 5564 5564 5565 5566 5568 5567 5567 5567 5567 5567 5566 5566 5565 5564 5564 5563 5563 5562 5561 5561 5561 5560 5560 5560 5560 5560 5560 5560 5560 5559 5559
5547 5547 5547 5547 5547 5549 5552 5552 5553 5554 5554 5554 5553 5554 5554 5554 5555 5556 5556 5556 5556 5556 5556 5555 5555 5554 5554 5553 5553 5553 5552 5552 5551 5551 5551 5550 5550 5550 5550 5550 5549 5549 5549 5548
5537 5538 5538 5539 5539 5542 5542 5541 5542 5542 5542 5542 5542 5543 5543 5543 5543 5544 5544 5544 5545 5544 5544 5544 5544 5543 5543 5542 5542 5542 5542 5541 5541 5541 5541 5540 5540 5540 5540 5539 5539 5538 5538 5537
5528 5529 5529 5530 5532 5531 5531 5531 5531 5531 5531 5531 5532 5532 5532 5532 5532 5533 5533 5533 5533 5533 5533 5532 5532 5532 5532 5531 5531 5531 5531 5531 5531 5530 5530 5530 5530 5529 5529 5528 5527 5527 5526 5525
5519 5519 5520 5520 5521 5521 5521 5521 5521 5521 5521 5521 5521 5521 5521 5521 5521 5521 5522 5522 5522 5521 5521 5521 5521 5521 5521 5520 5520 5520 5520 5520 5520 5520 5519 5519 5519 5519 5518 5517 5516 5515 5514 5513
5509 5510 5510 5510 5511 5512 5512 5511 5511 5511 5511 5511 5511 5510 5510 5510 5510 5510 5510 5510 5510 5510 5510 5509 5509 5509 5509 5509 5509 5509 5509 5509 5509 5509 5508 5508 5508 5507 5506 5505 5504 5502 5501 5500
5501 5500 5501 5501 5502 5502 5502 5501 5501 5501 5501 5500 5500 5500 5500 5499 5499 5499 5499 5499 5499 5499 5498 5498 5498 5498 5498 5498 5498 5498 5498 5498 5498 5497 5497 5497 5496 5495 5494 5493 5492 5490 5488 5487